| time (UTC) | temp F | wind direction | speed MPH | gust MPH | rain 1hr in | rain 24hr in | rain mn in | humidity % | barometer mb |
| 20260906093044 | 62 | 344 | 0.0 | 2.0 | 0.00 | 0.64 | 0.01 | 95 | 1013.0 |
| 20260906091542 | 63 | 344 | 0.0 | 2.0 | 0.00 | 0.64 | 0.01 | 95 | 1012.9 |
| 20260906090040 | 63 | 344 | 0.0 | 2.0 | 0.00 | 0.64 | 0.01 | 95 | 1012.6 |
| 20260906084539 | 63 | 345 | 0.0 | 2.0 | 0.00 | 0.64 | 0.01 | 95 | 1012.6 |
| 20260906083043 | 63 | 345 | 0.0 | 2.0 | 0.00 | 0.64 | 0.01 | 95 | 1012.5 |
| 20260906081541 | 64 | 81 | 0.0 | 2.0 | 0.00 | 0.64 | 0.01 | 94 | 1012.4 |
| 20260906080035 | 64 | 81 | 0.0 | 0.0 | 0.00 | 0.64 | 0.01 | 95 | 1012.4 |
| 20260906074535 | 65 | 82 | 0.0 | 0.0 | 0.00 | 0.64 | 0.01 | 95 | 1012.4 |
| 20260906073033 | 65 | 82 | 0.0 | 0.0 | 0.00 | 0.64 | 0.01 | 94 | 1012.4 |
| 20260906071528 | 66 | 82 | 0.0 | 0.0 | 0.00 | 0.64 | 0.01 | 95 | 1012.3 |
| 20260906070030 | 66 | 82 | 0.0 | 0.0 | 0.01 | 0.64 | 0.01 | 95 | 1012.2 |
| 20260906064533 | 67 | 82 | 0.0 | 0.0 | 0.01 | 0.64 | 0.01 | 95 | 1012.2 |
| 20260906063025 | 67 | 82 | 0.0 | 0.0 | 0.01 | 0.64 | 0.01 | 95 | 1012.3 |
| 20260906061523 | 67 | 82 | 0.0 | 0.0 | 0.01 | 0.64 | 0.01 | 95 | 1012.3 |
| 20260906060023 | 67 | 82 | 0.0 | 0.0 | 0.00 | 0.63 | 0.00 | 95 | 1012.2 |
| 20260906054521 | 67 | 82 | 0.0 | 0.0 | 0.00 | 0.63 | 0.00 | 95 | 1012.1 |
| 20260906053027 | 67 | 82 | 0.0 | 0.0 | 0.00 | 0.63 | 0.00 | 95 | 1012.1 |
| 20260906051529 | 68 | 82 | 0.0 | 0.0 | 0.00 | 0.63 | 0.00 | 95 | 1012.1 |
| 20260906050044 | 68 | 82 | 0.0 | 0.0 | 0.00 | 0.63 | 0.00 | 95 | 1012.2 |
| 20260906044517 | 68 | 82 | 0.0 | 0.0 | 0.00 | 0.63 | 0.00 | 95 | 1012.2 |
| 20260906043016 | 68 | 82 | 0.0 | 0.0 | 0.00 | 0.63 | 0.00 | 95 | 1012.2 |
| 20260906041516 | 69 | 82 | 0.0 | 0.0 | 0.00 | 0.63 | 0.00 | 95 | 1012.6 |
| 20260906040011 | 69 | 82 | 0.0 | 2.0 | 0.00 | 0.63 | 0.00 | 95 | 1012.4 |
| 20260906034510 | 69 | 82 | 0.0 | 0.0 | 0.00 | 0.63 | 0.63 | 95 | 1012.5 |
| 20260906033011 | 69 | 82 | 0.0 | 0.0 | 0.00 | 0.63 | 0.63 | 95 | 1012.4 |
| 20260906031514 | 69 | 82 | 0.0 | 0.0 | 0.00 | 0.63 | 0.63 | 95 | 1012.5 |
| 20260906030009 | 70 | 82 | 0.0 | 0.0 | 0.00 | 0.63 | 0.63 | 95 | 1012.5 |
| 20260906024510 | 70 | 82 | 0.0 | 0.0 | 0.00 | 0.63 | 0.63 | 95 | 1012.5 |
| 20260906023008 | 70 | 84 | 0.0 | 0.0 | 0.00 | 0.63 | 0.63 | 95 | 1012.3 |
| 20260906021508 | 70 | 84 | 0.0 | 0.0 | 0.00 | 0.63 | 0.63 | 95 | 1012.0 |
| 20260906020008 | 70 | 84 | 0.0 | 0.0 | 0.00 | 0.63 | 0.63 | 94 | 1011.9 |
| 20260906014509 | 71 | 84 | 0.0 | 0.0 | 0.00 | 0.63 | 0.63 | 94 | 1011.8 |
| 20260906013009 | 71 | 84 | 0.0 | 0.0 | 0.00 | 0.63 | 0.63 | 95 | 1011.7 |
| 20260906011507 | 71 | 84 | 0.0 | 0.0 | 0.00 | 0.63 | 0.63 | 95 | 1011.4 |
| 20260906010005 | 71 | 84 | 0.0 | 0.0 | 0.00 | 0.63 | 0.63 | 95 | 1011.3 |
| 20260906004506 | 71 | 84 | 0.0 | 2.0 | 0.00 | 0.63 | 0.63 | 95 | 1011.2 |
| 20260906003005 | 71 | 84 | 0.0 | 2.0 | 0.00 | 0.63 | 0.63 | 94 | 1010.9 |
| 20260906001502 | 71 | 83 | 0.0 | 0.0 | 0.00 | 0.63 | 0.63 | 94 | 1010.9 |
| 20260906000002 | 71 | 83 | 0.0 | 2.0 | 0.00 | 0.63 | 0.63 | 94 | 1010.9 |
| 20260905234501 | 71 | 83 | 0.0 | 2.0 | 0.00 | 0.63 | 0.63 | 94 | 1011.0 |
| 20260905233001 | 72 | 84 | 0.0 | 2.0 | 0.00 | 0.63 | 0.63 | 93 | 1010.9 |
| 20260905231501 | 72 | 84 | 0.0 | 1.0 | 0.00 | 0.63 | 0.63 | 93 | 1010.8 |
| 20260905230101 | 72 | 84 | 0.0 | 2.0 | 0.00 | 0.63 | 0.63 | 93 | 1010.7 |
| 20260905224609 | 72 | 84 | 0.0 | 2.0 | 0.00 | 0.63 | 0.63 | 94 | 1010.7 |
| 20260905223059 | 72 | 84 | 0.0 | 2.0 | 0.00 | 0.63 | 0.63 | 93 | 1010.6 |
| 20260905221601 | 72 | 84 | 0.0 | 2.0 | 0.00 | 0.63 | 0.63 | 93 | 1010.5 |
| 20260905220058 | 72 | 85 | 0.0 | 2.0 | 0.00 | 0.63 | 0.63 | 92 | 1010.3 |
| 20260905214608 | 73 | 87 | 0.0 | 2.0 | 0.02 | 0.63 | 0.63 | 92 | 1010.2 |
| 20260905213106 | 73 | 340 | 0.0 | 1.0 | 0.50 | 0.63 | 0.63 | 93 | 1010.2 |
| 20260905211601 | 72 | 344 | 0.0 | 2.0 | 0.50 | 0.63 | 0.63 | 93 | 1009.7 |
| 20260905210058 | 72 | 337 | 0.0 | 2.0 | 0.50 | 0.63 | 0.63 | 89 | 1009.9 |
| 20260905204557 | 74 | 337 | 0.0 | 5.0 | 0.48 | 0.61 | 0.61 | 84 | 1010.0 |
| 20260905203056 | 79 | 109 | 0.0 | 2.0 | 0.00 | 0.13 | 0.13 | 76 | 1009.7 |
| 20260905201554 | 80 | 172 | 0.0 | 2.0 | 0.00 | 0.13 | 0.13 | 76 | 1009.4 |
| 20260905200125 | 80 | 142 | 0.0 | 2.0 | 0.00 | 0.13 | 0.13 | 76 | 1009.6 |
| 20260905194555 | 80 | 201 | 0.0 | 2.0 | 0.00 | 0.53 | 0.13 | 76 | 1009.8 |
| 20260905193047 | 79 | 196 | 0.0 | 2.0 | 0.00 | 0.53 | 0.13 | 80 | 1009.9 |
| 20260905191544 | 78 | 177 | 0.0 | 2.0 | 0.00 | 0.53 | 0.13 | 82 | 1010.2 |
| 20260905190042 | 78 | 178 | 0.0 | 2.0 | 0.00 | 0.53 | 0.13 | 83 | 1010.3 |
| 20260905184548 | 77 | 187 | 0.0 | 2.0 | 0.00 | 0.53 | 0.13 | 85 | 1010.5 |
| 20260905183038 | 76 | 184 | 0.0 | 2.0 | 0.00 | 0.53 | 0.13 | 87 | 1010.7 |
| 20260905181535 | 76 | 184 | 0.0 | 2.0 | 0.11 | 0.53 | 0.13 | 89 | 1010.9 |
| 20260905180032 | 74 | 158 | 0.0 | 2.0 | 0.12 | 0.53 | 0.13 | 91 | 1010.9 |
| 20260905174540 | 74 | 165 | 0.0 | 0.0 | 0.13 | 0.53 | 0.13 | 92 | 1011.0 |
| 20260905173032 | 74 | 165 | 0.0 | 2.0 | 0.13 | 0.53 | 0.13 | 90 | 1011.2 |
| 20260905171534 | 74 | 165 | 0.0 | 2.0 | 0.02 | 0.42 | 0.02 | 88 | 1011.3 |
| 20260905170031 | 74 | 165 | 0.0 | 1.0 | 0.01 | 0.41 | 0.01 | 86 | 1011.2 |
| 20260905164526 | 74 | 165 | 0.0 | 2.0 | 0.00 | 0.40 | 0.00 | 88 | 1011.3 |
| 20260905163025 | 73 | 165 | 0.0 | 2.0 | 0.00 | 0.40 | 0.00 | 89 | 1011.4 |
| 20260905161525 | 73 | 144 | 0.0 | 2.0 | 0.00 | 0.40 | 0.00 | 89 | 1011.7 |
| 20260905160041 | 74 | 165 | 0.0 | 2.0 | 0.00 | 0.40 | 0.00 | 90 | 1012.2 |
| 20260905154522 | 74 | 177 | 0.0 | 2.0 | 0.00 | 0.40 | 0.00 | 90 | 1012.2 |
| 20260905153018 | 74 | 177 | 0.0 | 0.0 | 0.00 | 0.40 | 0.00 | 90 | 1012.2 |
| 20260905151514 | 73 | 177 | 0.0 | 2.0 | 0.00 | 0.40 | 0.00 | 90 | 1012.2 |
| 20260905150020 | 73 | 182 | 0.0 | 2.0 | 0.00 | 0.40 | 0.00 | 90 | 1012.4 |
| 20260905144527 | 73 | 184 | 0.0 | 1.0 | 0.00 | 0.40 | 0.00 | 90 | 1012.5 |
| 20260905143015 | 73 | 184 | 0.0 | 0.0 | 0.00 | 0.40 | 0.00 | 91 | 1012.2 |
| 20260905141506 | 73 | 184 | 0.0 | 2.0 | 0.00 | 0.40 | 0.00 | 90 | 1012.2 |
| 20260905140004 | 73 | 197 | 0.0 | 1.0 | 0.00 | 0.40 | 0.00 | 90 | 1012.2 |
| 20260905134607 | 72 | 197 | 0.0 | 2.0 | 0.00 | 0.40 | 0.00 | 89 | 1012.1 |
| 20260905133059 | 72 | 197 | 0.0 | 0.0 | 0.00 | 0.40 | 0.00 | 91 | 1011.4 |
| 20260905131559 | 71 | 197 | 0.0 | 0.0 | 0.00 | 0.40 | 0.00 | 91 | 1011.5 |
| 20260905130057 | 71 | 197 | 0.0 | 1.0 | 0.00 | 0.40 | 0.00 | 91 | 1011.7 |
| 20260905124554 | 70 | 197 | 0.0 | 0.0 | 0.00 | 0.40 | 0.00 | 93 | 1011.7 |
| 20260905123057 | 69 | 197 | 0.0 | 2.0 | 0.00 | 0.40 | 0.00 | 94 | 1011.4 |
| 20260905121553 | 69 | 197 | 0.0 | 2.0 | 0.00 | 0.40 | 0.00 | 94 | 1011.4 |
| 20260905120057 | 69 | 197 | 0.0 | 2.0 | 0.00 | 0.40 | 0.00 | 94 | 1011.5 |
| 20260905114624 | 68 | 197 | 0.0 | 0.0 | 0.00 | 0.40 | 0.00 | 94 | 1011.4 |
| 20260905113055 | 68 | 197 | 0.0 | 0.0 | 0.00 | 0.40 | 0.00 | 94 | 1011.3 |
| 20260905111554 | 68 | 197 | 0.0 | 0.0 | 0.00 | 0.40 | 0.00 | 94 | 1011.1 |
| 20260905110050 | 68 | 197 | 0.0 | 2.0 | 0.00 | 0.40 | 0.00 | 95 | 1011.0 |
| 20260905104552 | 68 | 189 | 0.0 | 1.0 | 0.00 | 0.40 | 0.00 | 94 | 1011.0 |
| 20260905103050 | 68 | 189 | 0.0 | 0.0 | 0.00 | 0.40 | 0.00 | 94 | 1010.7 |
| 20260905101549 | 68 | 186 | 0.0 | 2.0 | 0.00 | 0.40 | 0.00 | 94 | 1010.5 |
| 20260905100107 | 68 | 186 | 0.0 | 0.0 | 0.00 | 0.40 | 0.00 | 94 | 1010.3 |
| 20260905094554 | 68 | 186 | 0.0 | 0.0 | 0.00 | 0.40 | 0.00 | 93 | 1010.5 |